[[{"header":{"parameterUnit":"m.s-1","parameterCategory":1,"la1":30.2991,"la2":30.254,"lo1":-89.0895,"lo2":-89.0444,"dy":0.0017,"dx":0.0017,"nx":28,"ny":28,"refTime":"2024-02-25T03:00:00:Z","depth":0,"parameterNumber":2,"parameterNumberName":"U-component_of_WINDS"},"data":[0,0,0,0,0,0,0,0,0,0,0,0,0,0,0,0,0,0,0,0,0,0,0,0,0,0,0,0,0,0,0,0,0,0,0,0,0,0,0,0,0,0,0,0,0,0,0,0,0,0,0,0,0,0,0,0,0,0,-1.3057,-1.3057,0,-1.3026,-1.3025,-1.3025,-1.2999,-1.2999,-1.2998,-1.2998,-1.2965,-1.2964,-1.2963,0,0,0,0,0,0,0,0,0,0,0,0,0,-1.3096,-1.3095,-1.3057,-1.3057,-1.3057,-1.3026,-1.3025,-1.3025,-1.2999,-1.2999,-1.2998,-1.2998,-1.2965,-1.2964,-1.2963,0,0,0,0,0,0,0,0,0,0,0,0,0,-1.3073,-1.3095,-1.3057,-1.304,-1.3038,-1.3026,-1.3025,-1.3025,-1.2999,-1.2999,-1.2998,-1.2998,-1.2965,-1.2964,-1.2963,-1.2965,0,0,-1.296,-1.296,0,0,0,0,0,0,0,0,-1.3074,-1.3072,-1.3043,-1.3041,-1.3039,-1.3016,-1.3026,-1.3005,-1.2999,-1.3014,-1.2998,-1.2998,-1.2982,-1.2979,-1.2974,-1.2964,-1.2962,-1.296,-1.2959,-1.2959,-1.2959,0,0,0,0,0,0,0,-1.3076,-1.3073,-1.3045,-1.3043,-1.304,-1.3034,-1.303,-1.3022,-1.3,-1.3012,-1.301,-1.3007,-1.2981,-1.2975,-1.2973,-1.2962,-1.296,-1.2959,-1.2959,-1.2958,-1.2952,-1.2952,0,0,0,0,0,0,-1.308,-1.3074,-1.3046,-1.3044,-1.3056,-1.3033,-1.3029,-1.3024,-1.3,-1.2997,-1.3007,-1.3006,-1.2977,-1.2974,-1.2972,-1.2973,-1.2959,-1.2958,-1.2958,-1.2951,-1.2952,-1.2952,0,0,0,0,0,0,-1.3081,-1.3078,-1.3047,-1.3059,-1.3054,-1.3033,-1.3027,-1.3023,-1.3018,-1.2997,-1.2993,-1.3006,-1.2977,-1.2973,-1.2967,-1.2971,-1.2958,-1.2957,-1.2951,-1.2951,-1.2952,-1.2975,0,0,0,0,0,0,-1.3083,-1.3079,-1.3079,-1.3059,-1.3054,-1.3043,-1.3027,-1.3023,-1.3016,-1.3014,-1.2994,-1.299,-1.2976,-1.2969,-1.2966,-1.297,-1.2956,-1.295,-1.2951,-1.2952,-1.2973,-1.2976,-1.2978,0,0,0,0,0,-1.3084,-1.3086,-1.3079,-1.3076,-1.3054,-1.3043,-1.304,-1.3024,-1.3017,-1.3017,-1.3004,-1.2991,-1.2972,-1.2968,-1.2965,-1.2969,-1.295,-1.2951,-1.2952,-1.2972,-1.2975,-1.2978,0,0,0,0,0,0,-1.3107,-1.3083,-1.3075,-1.3071,-1.3059,-1.3039,-1.3038,-1.3027,-1.3017,-1.3015,-1.2996,-1.2991,-1.2987,-1.2978,-1.2974,-1.297,-1.2959,-1.296,-1.2976,-1.2979,-1.2981,-1.2983,-1.2955,0,0,0,0,0,-1.3112,-1.3105,-1.3085,-1.3083,-1.3078,-1.3059,-1.3054,-1.3043,-1.3029,-1.3024,-1.301,-1.2998,-1.2989,-1.2984,-1.2974,-1.2973,-1.2968,-1.2973,-1.2976,-1.2978,-1.2978,-1.2977,-1.2979,-1.2955,-1.2955,-1.2955,0,0,-1.3121,-1.3107,-1.3104,-1.3087,-1.3077,-1.307,-1.3055,-1.3049,-1.3044,-1.3023,-1.3016,-1.3006,-1.2991,-1.2987,-1.2985,-1.2979,-1.2984,-1.2979,-1.2981,-1.298,-1.2978,-1.298,-1.2982,-1.2956,-1.2956,-1.2956,0,0,-1.3134,-1.3124,-1.3121,-1.3111,-1.3096,-1.3084,-1.3083,-1.3065,-1.3057,-1.305,-1.3035,-1.3029,-1.3014,-1.3004,-1.2997,-1.3009,-1.2997,-1.3007,-1.3018,-1.3017,-1.3019,-1.3021,-1.3024,-1.3026,-1.3007,-1.3007,-1.3007,0,-1.3148,-1.3137,-1.3121,-1.3116,-1.3109,-1.3091,-1.3088,-1.308,-1.3062,-1.3058,-1.3052,-1.3033,-1.3022,-1.3016,-1.3019,-1.3014,-1.3013,-1.3008,-1.302,-1.3022,-1.3023,-1.3026,-1.3028,-1.3008,-1.3008,-1.3008,-1.3008,0,-1.3154,-1.3147,-1.3147,-1.3131,-1.3124,-1.3121,-1.3104,-1.3099,-1.3089,-1.3078,-1.3072,-1.3058,-1.3045,-1.3044,-1.3033,-1.3036,-1.3033,-1.3024,-1.3013,-1.3026,-1.3029,-1.303,-1.301,-1.301,-1.3009,-1.3009,0,0,-1.3179,-1.3155,-1.3156,-1.3148,-1.3131,-1.3125,-1.3121,-1.311,-1.3106,-1.3095,-1.3091,-1.308,-1.3071,-1.3064,-1.3052,-1.3052,-1.3062,-1.3043,-1.3042,-1.3046,-1.3064,-1.307,-1.3071,-1.3054,-1.3055,-1.3055,-1.3065,0,-1.3189,-1.318,-1.3166,-1.3162,-1.3155,-1.3139,-1.3136,-1.3125,-1.3115,-1.3108,-1.3097,-1.3089,-1.3079,-1.3074,-1.3073,-1.3061,-1.3065,-1.306,-1.305,-1.3049,-1.3053,-1.3073,-1.3079,-1.3089,-1.3066,-1.3066,-1.3066,0,-1.3199,-1.319,-1.3185,-1.3169,-1.3165,-1.3162,-1.3151,-1.3145,-1.3132,-1.3125,-1.3117,-1.3105,-1.31,-1.3092,-1.3084,-1.3081,-1.3077,-1.307,-1.307,-1.3068,-1.3058,-1.307,-1.3092,-1.3093,-1.3068,-1.3067,-1.3067,0,-1.3218,-1.3204,-1.3199,-1.3193,-1.3174,-1.3172,-1.3164,-1.3152,-1.3146,-1.3137,-1.3133,-1.3123,-1.3117,-1.311,-1.3096,-1.309,-1.309,-1.308,-1.3083,-1.3084,-1.3083,-1.3083,-1.3103,-1.3082,-1.3082,-1.3082,-1.3082,0,-1.323,-1.3227,-1.3207,-1.3204,-1.3201,-1.3185,-1.3183,-1.3173,-1.3162,-1.3157,-1.3143,-1.3139,-1.3121,-1.3115,-1.3104,-1.31,-1.3097,-1.3091,-1.3088,-1.3092,-1.3092,-1.3087,-1.3086,-1.3082,-1.3082,-1.3082,-1.3082,0,-1.3249,-1.3235,-1.3229,-1.3212,-1.3208,-1.3206,-1.3191,-1.3188,-1.3178,-1.3172,-1.317,-1.3153,-1.3145,-1.3131,-1.3119,-1.3112,-1.3109,-1.3105,-1.3113,-1.3111,-1.3116,-1.3115,-1.3133,-1.3134,-1.3113,-1.3113,-1.3113,0,-1.3257,-1.3254,-1.3238,-1.3233,-1.3226,-1.3219,-1.3214,-1.3199,-1.3193,-1.318,-1.3178,-1.3169,-1.3161,-1.3149,-1.3136,-1.3127,-1.3122,-1.3129,-1.312,-1.3124,-1.3121,-1.3121,-1.3121,-1.313,-1.313,-1.3131,-1.3131,0,-1.3272,-1.3266,-1.3258,-1.3248,-1.3242,-1.3234,-1.3224,-1.3222,-1.3205,-1.32,-1.3192,-1.3186,-1.3174,-1.3165,-1.3154,-1.3146,-1.3136,-1.3134,-1.3134,-1.3137,-1.3142,-1.3139,-1.3118,-1.3133,-1.3133,-1.3133,-1.3133,-1.3132,-1.3286,-1.3283,-1.3271,-1.3263,-1.3255,-1.3247,-1.3243,-1.3232,-1.3225,-1.3214,-1.3206,-1.3199,-1.3187,-1.3172,-1.3165,-1.3159,-1.3154,-1.3154,-1.3154,-1.3154,-1.3156,-1.3144,-1.3157,-1.3157,-1.3157,-1.3157,-1.3157,0,-1.33,-1.3292,-1.3285,-1.3272,-1.3266,-1.3258,-1.3248,-1.3243,-1.3237,-1.3227,-1.322,-1.3211,-1.3202,-1.319,-1.318,-1.3178,-1.3173,-1.3176,-1.3176,-1.3174,-1.3161,-1.3161,-1.318,-1.318,-1.318,-1.318,-1.318,-1.318,-1.3307,-1.3302,-1.3294,-1.3285,-1.3277,-1.3269,-1.3264,-1.3257,-1.3249,-1.324,-1.3233,-1.3225,-1.3214,-1.3204,-1.3196,-1.3193,-1.319,-1.3194,-1.3189,-1.3177,-1.3175,-1.3173,-1.3173,-1.3194,-1.3194,-1.3203,-1.3203,-1.3203]},{"header":{"parameterUnit":"m.s-1","parameterCategory":1,"la1":30.2991,"la2":30.254,"lo1":-89.0895,"lo2":-89.0444,"dy":0.0017,"dx":0.0017,"nx":28,"ny":28,"refTime":"2024-02-25T03:00:00:Z","depth":0,"parameterNumber":3,"parameterNumberName":"V-component_of_WINDS"},"data":[0,0,0,0,0,0,0,0,0,0,0,0,0,0,0,0,0,0,0,0,0,0,0,0,0,0,0,0,0,0,0,0,0,0,0,0,0,0,0,0,0,0,0,0,0,0,0,0,0,0,0,0,0,0,0,0,0,0,2.8905,2.8905,0,2.8882,2.8882,2.8882,2.8933,2.8934,2.8936,2.8937,2.891,2.8908,2.8906,0,0,0,0,0,0,0,0,0,0,0,0,0,2.8991,2.8989,2.8905,2.8905,2.8905,2.8882,2.8882,2.8882,2.8932,2.8934,2.8936,2.8938,2.8911,2.8908,2.8906,0,0,0,0,0,0,0,0,0,0,0,0,0,2.8959,2.8988,2.8905,2.8927,2.8929,2.8882,2.8882,2.8882,2.8932,2.8934,2.8937,2.8939,2.8912,2.8908,2.8905,2.8835,0,0,2.8895,2.8893,0,0,0,0,0,0,0,0,2.8961,2.8956,2.8924,2.8926,2.8928,2.8913,2.8902,2.8866,2.8931,2.8931,2.8937,2.894,2.8909,2.8906,2.8896,2.8834,2.8832,2.8894,2.8892,2.8891,2.889,0,0,0,0,0,0,0,2.8963,2.8957,2.8896,2.8924,2.8926,2.8938,2.8936,2.8896,2.8906,2.8931,2.8935,2.8931,2.891,2.8899,2.8896,2.8832,2.8895,2.8892,2.8889,2.8888,2.8713,2.8711,0,0,0,0,0,0,2.8963,2.8959,2.8897,2.8895,2.8951,2.8934,2.8932,2.8915,2.8907,2.8908,2.8929,2.8934,2.8904,2.89,2.8895,2.8814,2.8891,2.8888,2.8886,2.8716,2.8713,2.871,0,0,0,0,0,0,2.8964,2.8957,2.8898,2.8928,2.8921,2.893,2.891,2.8913,2.8902,2.8906,2.8907,2.8916,2.8905,2.89,2.885,2.8814,2.8886,2.8883,2.8719,2.8715,2.8711,2.865,0,0,0,0,0,0,2.8967,2.8957,2.8931,2.8927,2.892,2.8854,2.8908,2.8911,2.8897,2.8903,2.8894,2.8895,2.8907,2.8855,2.8847,2.881,2.8881,2.8722,2.8717,2.8713,2.8655,2.8644,2.8635,0,0,0,0,0,2.8969,2.8913,2.8929,2.8921,2.8887,2.8851,2.8847,2.8864,2.8894,2.8867,2.887,2.8895,2.8819,2.885,2.8841,2.8802,2.8725,2.8719,2.8713,2.866,2.8647,2.8635,0,0,0,0,0,0,2.891,2.8913,2.8931,2.8871,2.8861,2.886,2.8827,2.8849,2.8828,2.8834,2.8855,2.8852,2.8799,2.8796,2.883,2.8735,2.8777,2.8769,2.8739,2.8727,2.8717,2.8719,2.8878,0,0,0,0,0,2.889,2.8862,2.8866,2.8813,2.8807,2.8818,2.8803,2.8817,2.8806,2.8802,2.88,2.8788,2.8762,2.8744,2.872,2.8655,2.8655,2.8625,2.8615,2.8606,2.8599,2.8567,2.8554,2.8691,2.8691,2.8691,0,0,2.8848,2.8847,2.8827,2.8801,2.8795,2.8765,2.8814,2.8779,2.8757,2.8796,2.875,2.8749,2.8737,2.868,2.8655,2.8676,2.8562,2.8599,2.8592,2.859,2.8559,2.8546,2.8535,2.8687,2.8687,2.8688,0,0,2.8758,2.8753,2.871,2.8703,2.8694,2.8702,2.8691,2.8688,2.8689,2.8643,2.8673,2.8646,2.86,2.8591,2.858,2.8489,2.8512,2.848,2.8427,2.8395,2.8385,2.8375,2.8344,2.8332,2.8473,2.8473,2.8473,0,2.8707,2.8664,2.8684,2.8649,2.8637,2.8673,2.8629,2.8621,2.8604,2.8594,2.8618,2.8563,2.8557,2.85,2.8478,2.8468,2.8457,2.8481,2.8385,2.8375,2.8367,2.8337,2.8325,2.8469,2.847,2.847,2.847,0,2.8602,2.8572,2.8538,2.8523,2.8507,2.8467,2.8482,2.8463,2.8479,2.8484,2.8439,2.8433,2.841,2.8397,2.8411,2.8342,2.8356,2.8381,2.8424,2.835,2.8322,2.8311,2.8464,2.8465,2.8467,2.8467,0,0,2.8472,2.847,2.8457,2.8452,2.8445,2.8422,2.8384,2.8363,2.8348,2.8334,2.8304,2.8265,2.8291,2.8278,2.8292,2.8264,2.8193,2.8294,2.8294,2.8276,2.8118,2.8099,2.8086,2.8209,2.8207,2.8205,2.812,0,2.8383,2.832,2.8339,2.8276,2.8249,2.8284,2.8251,2.8243,2.8248,2.8225,2.823,2.8203,2.8237,2.8231,2.8204,2.8207,2.8162,2.8214,2.818,2.8179,2.8183,2.8071,2.805,2.7971,2.8109,2.8107,2.8106,0,2.8271,2.8256,2.8191,2.8191,2.818,2.8151,2.8134,2.8112,2.8104,2.811,2.8097,2.8117,2.8081,2.8123,2.8074,2.8108,2.8096,2.8096,2.8093,2.8091,2.8138,2.8067,2.7945,2.7934,2.8089,2.809,2.8092,0,2.8184,2.8147,2.8104,2.8098,2.8097,2.8076,2.8074,2.8069,2.8055,2.804,2.8032,2.8012,2.8001,2.7985,2.8,2.8029,2.7948,2.7991,2.7952,2.7951,2.7933,2.7934,2.7809,2.7924,2.7924,2.7924,2.7924,0,2.8083,2.8042,2.8066,2.8039,2.7994,2.8016,2.7971,2.7973,2.7969,2.7943,2.7971,2.7946,2.7967,2.7943,2.7954,2.7912,2.7907,2.791,2.7914,2.7908,2.7908,2.79,2.7907,2.7921,2.7922,2.7922,2.7923,0,2.7979,2.7993,2.7948,2.7951,2.7951,2.7918,2.7921,2.7896,2.7904,2.7871,2.7865,2.7876,2.7851,2.7864,2.7836,2.7844,2.779,2.78,2.7793,2.7796,2.7756,2.776,2.7622,2.7605,2.773,2.7729,2.7728,0,2.7914,2.7883,2.7884,2.787,2.7867,2.7843,2.7831,2.7851,2.7837,2.7827,2.7804,2.7782,2.7765,2.7722,2.7728,2.7708,2.7718,2.7671,2.7715,2.7711,2.7719,2.7721,2.7719,2.7662,2.7661,2.766,2.7659,0,2.7798,2.7807,2.7788,2.7773,2.7758,2.7746,2.7736,2.7722,2.7743,2.7725,2.7701,2.7688,2.7662,2.7639,2.7622,2.762,2.7643,2.7645,2.7635,2.7629,2.7627,2.7629,2.777,2.7648,2.7649,2.765,2.7651,2.7651,2.7712,2.7687,2.7685,2.7664,2.7659,2.765,2.7629,2.7634,2.7615,2.7596,2.7609,2.758,2.7575,2.7555,2.755,2.7528,2.7546,2.7531,2.7528,2.7524,2.7519,2.763,2.7524,2.7525,2.7525,2.7525,2.7526,0,2.7599,2.7599,2.758,2.7567,2.7551,2.7575,2.7566,2.7551,2.7526,2.752,2.7503,2.7476,2.7455,2.7459,2.744,2.7422,2.7432,2.7416,2.7418,2.7417,2.7503,2.7514,2.7408,2.7408,2.7408,2.7408,2.7408,2.7408,2.7538,2.7498,2.7507,2.7466,2.7467,2.7441,2.7434,2.7426,2.7421,2.739,2.7373,2.7377,2.7375,2.7357,2.7339,2.7341,2.7333,2.7314,2.7319,2.7399,2.7411,2.7422,2.7433,2.7311,2.7311,2.7236,2.7235,2.7234]}]]